Regional Weather Roundup
Issued by NWS

Home | Current Version | Previous Version | Graphics & Text | Print | Product List | Glossary On
Versions: 1 2 3 4 5 6 7 8 9 10 11 12 13 14 15 16 17 18 19 20 21 22 23 24 25 26 27
000
ASUS45 KCYS 221110
RWRWY

WYOMING REGIONAL WEATHER ROUNDUP
NATIONAL WEATHER SERVICE CHEYENNE WY
500 AM MDT FRI SEP 22 2017

NOTE:  "FAIR" INDICATES FEW OR NO CLOUDS BELOW 12,000 FEET
WITH NO SIGNIFICANT WEATHER AND/OR OBSTRUCTIONS TO VISIBILITY.

WYZ001-221200-
YELLOWSTONE NATIONAL PARK

CITY           SKY/WX    TMP DP  RH WIND       PRES   REMARKS
LK YELLOWSTONE NOT AVBL
W YELLOWSTONE  NOT AVBL

$$
WYZ002>013-054>058-071-098>099-221200-
NORTHERN WYOMING

CITY           SKY/WX    TMP DP  RH WIND       PRES   REMARKS
JACKSON        CLOUDY    34  34 100 W3        29.81R
CODY           LGT SNOW  33  31  92 NW6       29.94R FOG     WCI  28
GREYBULL       CLOUDY    40  39  97 NW10      29.89R WCI  33
WORLAND        CLOUDY    40  40 100 NW7       29.91R
SHERIDAN       CLOUDY    44  40  85 W13       29.93R
BUFFALO        CLOUDY    43  33  68 NW13      29.91R
GILLETTE       CLOUDY    42  35  76 N15       29.85R
HULETT         CLOUDY    45  34  65 N5        29.84S
NEWCASTLE      FAIR      46  37  71 SE8       29.76R

$$
WYZ014>020-022>026-101>103-221200-
CENTRAL WYOMING

CITY           SKY/WX    TMP DP  RH WIND       PRES   REMARKS
BIG PINEY      CLOUDY    43  35  73 S13       29.82R
PINEDALE       CLOUDY    37  37 100 E14G22    29.84S WCI  29
DUBOIS         LGT SNOW  32  32 100 SE7       29.81F WCI  26
LANDER           N/A    N/A N/A N/A MISG      29.87R
RIVERTON       CLOUDY    41  36  82 N9        29.88R
CASPER         FAIR      36  31  82 NE7       29.85S WCI  30
DOUGLAS        FAIR      37  31  78 NW10      29.85R WCI  30

$$
WYZ021-027>030-104>119-221200-
SOUTHERN WYOMING

CITY           SKY/WX    TMP DP  RH WIND       PRES   REMARKS
EVANSTON       CLOUDY    33  33 100 SW9       29.82S FOG     WCI  25
KEMMERER         N/A     37  36  93 S6        29.83R WCI  33
FORT BRIDGER   LGT RAIN  38  38 100 W25G32    29.85R WCI  27
ROCK SPRINGS   LGT RAIN  40  38  93 NW8       29.86R WCI  34
DIXON          FAIR      61  24  23 S16G23    29.82R
RAWLINS        FAIR      45  33  63 SW17      29.81R
SARATOGA       FAIR      54  23  30 S13       29.82S
LARAMIE        FAIR      37  20  50 CALM      29.85R
CHEYENNE       FAIR      46  36  68 VRB3      29.83R
TORRINGTON     FAIR      44  38  79 NW7       29.77R
PINE BLUFFS    FAIR      43  36  75 N9        29.80S

$$




USA.gov is the U.S. government's official web portal to all federal, state and local government web resources and services.